RH
30 29 22 18 18 18 21 20 24 62 65 63 64 64 57 53 52 45 41 40 47 72 85 89 89 86 86 84 82 81 80 78 78 76 74 72 70 67
31 24 19 18 17 16 18 16 14 23 69 63 67 62 56 53 50 46 40 38 37 38 86 88 88 87 84 84 84 82 81 80 78 77 74 71 69 66
24 20 19 19 19 19 18 19 18 19 55 70 64 61 58 54 47 43 38 36 36 32 83 86 87 81 80 82 83 85 82 80 80 77 74 70 68 67
23 21 22 24 23 24 24 23 22 25 32 61 63 63 61 58 53 43 36 34 30 25 81 82 73 75 80 81 82 78 79 85 82 75 71 69 78 82
21 21 23 24 27 29 26 28 33 33 34 43 69 71 65 60 49 39 34 35 33 33 47 33 43 45 54 71 75 76 88 86 78 73 69 77 74 78
23 24 25 26 24 31 35 37 40 45 58 64 74 73 69 67 65 62 42 36 35 25 32 28 28 27 33 46 35 38 87 83 77 72 69 74 84 78
31 32 33 31 35 35 34 41 49 62 71 69 70 76 79 80 77 70 73 42 50 43 29 28 27 29 34 32 35 62 89 85 80 76 74 73 70 70
38 42 44 46 48 43 50 64 64 62 62 63 78 81 83 78 71 72 74 78 70 45 49 30 36 35 42 41 44 51 86 84 83 80 81 78 76 75
40 47 53 58 59 78 95 95 95 61 51 59 63 75 77 75 73 66 54 60 73 52 65 52 42 43 50 44 42 49 80 82 83 85 85 83 80 78
46 50 54 73 78 73 72 68 62 58 56 54 59 68 68 67 65 64 58 57 46 54 71 77 62 63 58 49 50 59 80 83 85 88 88 86 84 80
56 56 63 73 79 62 49 51 61 78 67 54 55 48 40 46 70 53 65 73 78 64 67 84 72 87 77 62 59 69 78 82 88 89 91 91 88 84
66 74 72 73 71 48 40 44 67 63 48 40 40 42 42 44 50 56 63 74 95 90 71 93 87 96 90 72 74 74 74 66 87 81 84 92 91 94
90 97 99 96 85 55 41 61 50 44 40 41 43 43 46 51 56 62 70 80 93 98 80 100 94 98 97 93 86 81 83 86 89 84 72 86 98 93
92 91 97 95 98 88 87 87 59 39 42 45 46 52 54 60 63 65 68 71 79 86 76 87 100 100 100 95 91 84 91 96 87 84 82 92 98 98
77 90 99 100 100 97 87 81 43 45 48 50 59 64 68 67 68 62 64 68 65 66 74 85 94 98 100 100 97 95 97 95 88 86 94 97 100 100
98 100 100 98 90 83 81 50 52 57 57 64 68 69 68 65 68 74 76 76 69 56 64 81 90 96 100 100 100 98 98 99 90 97 99 95 95 96
99 100 99 96 87 63 61 61 62 62 66 72 69 67 71 72 75 84 88 90 95 94 90 91 96 93 84 86 100 88 89 94 95 97 100 98 94 91
98 97 96 90 79 76 65 67 67 69 74 72 69 76 80 82 88 90 94 93 93 93 100 100 98 97 87 76 67 80 78 92 96 100 100 99 92 78
96 96 92 84 79 73 64 66 69 74 76 72 75 77 86 97 94 91 92 91 94 94 99 99 99 99 92 89 77 74 87 89 97 99 98 100 100 80
96 90 84 80 74 67 71 72 74 82 78 73 78 97 100 97 93 93 93 99 98 94 96 97 100 99 98 96 98 81 71 91 96 100 100 100 96 73
90 85 72 69 66 70 75 79 81 81 76 86 96 100 100 100 98 96 96 98 95 91 95 97 100 100 100 100 94 89 69 63 84 99 99 100 96 93
83 66 64 64 66 75 83 84 81 76 78 92 93 97 100 100 100 100 100 97 91 98 98 100 100 99 98 100 100 99 94 75 65 66 86 94 97 95
57 56 62 66 72 79 81 78 80 79 74 89 89 93 100 100 100 100 99 100 100 100 100 100 100 95 94 94 98 99 96 88 91 91 63 68 75 79
Wind_Speed
22 17 12 9 8 7 8 12 10 3 2 6 5 0 5 8 11 13 14 15 16 17 16 18 15 16 19 20 21 22 23 23 24 25 26 26 27 28
19 17 14 12 10 10 9 7 5 8 4 4 4 1 4 7 10 13 14 16 18 18 17 16 14 17 22 22 22 23 23 23 24 25 25 27 29 30
21 20 18 15 14 12 10 8 7 7 11 5 6 1 3 7 9 12 16 18 19 18 18 15 15 21 23 23 22 22 23 24 24 24 27 29 29 30
25 23 21 18 15 13 11 10 8 7 7 9 6 2 3 9 12 15 17 18 20 21 12 14 20 21 21 21 21 23 24 23 24 27 27 28 29 28
28 25 23 20 17 14 12 11 10 9 7 9 6 3 4 10 15 17 20 23 25 14 15 24 22 21 21 22 23 24 22 24 26 26 27 27 29 30
27 24 22 19 16 15 13 12 10 10 8 9 8 4 5 10 12 20 27 26 26 18 22 24 21 23 25 25 26 24 24 25 25 26 27 29 30 31
26 23 20 17 15 13 11 12 10 9 8 8 7 4 6 8 14 17 19 26 17 16 29 25 24 24 26 27 27 25 25 24 25 25 28 29 30 32
30 25 21 19 17 15 14 11 9 8 7 6 5 5 5 9 13 15 19 15 10 14 24 25 22 29 32 33 30 25 26 26 27 29 30 29 31 31
30 28 25 20 18 18 17 15 13 10 8 7 6 6 5 9 11 15 17 17 13 19 15 18 24 33 36 36 28 27 27 29 30 31 29 30 30 31
30 28 27 24 20 18 16 13 10 9 8 8 6 4 5 7 10 11 13 18 22 18 13 9 23 30 41 37 25 28 27 31 31 31 31 31 30 30
30 26 25 23 19 15 14 14 12 11 8 5 3 3 4 5 7 10 12 17 13 14 9 14 21 31 30 28 23 31 31 29 30 30 31 30 29 31
28 25 22 21 18 16 14 11 12 8 4 3 2 3 6 7 7 9 11 13 11 9 6 15 23 19 13 16 29 27 33 33 30 30 29 29 30 31
32 28 22 20 19 16 12 10 9 8 6 4 3 6 6 7 9 10 11 13 13 14 20 17 18 20 14 25 25 33 28 34 37 34 30 33 30 30
33 29 25 22 19 16 14 13 11 8 6 5 6 6 8 10 12 13 15 16 17 16 18 15 16 24 25 29 26 28 34 35 34 32 36 38 33 30
34 31 26 22 19 17 14 12 8 7 6 6 7 8 9 12 14 17 18 19 21 18 20 20 22 28 26 25 28 35 36 29 26 34 38 37 35 33
30 28 27 24 17 16 14 10 8 7 6 6 6 7 9 13 16 19 21 24 25 27 26 26 25 27 32 25 28 32 30 21 39 36 33 36 35 30
36 30 27 23 18 14 12 9 7 7 5 5 6 8 12 15 17 20 21 25 25 27 32 31 28 28 26 31 27 30 31 28 29 32 33 33 36 31
31 29 24 20 17 15 12 9 6 5 3 4 5 8 12 17 18 21 23 23 24 27 26 28 33 30 28 29 11 24 25 28 31 30 28 27 32 39
29 24 22 20 17 14 12 9 6 4 2 3 4 9 13 16 18 21 24 23 24 23 25 28 28 22 20 11 29 20 26 36 31 28 25 26 29 39
24 24 22 19 16 14 11 8 6 4 2 3 7 10 11 14 18 21 22 22 21 23 25 23 22 23 21 18 22 38 35 26 29 30 30 30 29 30
21 21 20 18 15 12 9 7 5 4 5 7 8 8 11 14 18 19 20 20 22 23 23 25 28 25 27 24 21 23 38 36 29 28 32 28 23 21
21 20 18 16 13 10 8 6 4 3 4 5 7 10 12 14 17 19 20 23 23 21 23 25 25 24 25 20 23 27 30 40 41 40 25 16 19 11
20 17 15 13 11 9 7 4 3 1 2 4 7 11 13 16 18 19 22 23 22 21 25 25 25 24 25 24 24 26 30 34 31 36 40 32 29 25
Wind_Direction
212 221 215 194 183 188 183 172 147 146 162 179 173 117 1 357 358 3 4 357 354 359 354 349 354 349 348 342 338 335 331 329 326 326 324 322 319 316
200 194 176 160 151 141 147 163 158 139 130 155 165 145 3 0 2 357 1 355 356 357 352 354 349 346 345 338 335 333 330 328 327 326 324 320 318 314
184 176 162 157 149 140 137 123 115 124 124 131 151 148 354 358 357 355 356 355 358 358 352 352 352 343 337 335 334 335 332 329 329 327 324 321 317 312
174 170 161 157 151 145 138 124 119 118 136 140 145 107 11 360 356 350 355 355 358 355 360 354 345 341 337 337 339 336 332 332 332 328 325 320 318 315
177 174 167 164 155 151 141 134 126 114 124 137 126 76 13 357 352 352 357 356 4 11 6 352 350 350 348 343 339 335 336 335 332 329 326 324 320 317
176 175 168 167 160 155 144 134 125 118 111 104 96 76 35 358 358 358 354 358 1 11 352 358 356 358 355 349 346 343 339 334 331 329 328 324 320 317
171 169 163 158 156 152 147 136 128 121 110 95 87 69 23 11 5 355 352 353 10 1 344 2 356 356 354 353 351 342 333 332 330 328 326 323 321 318
165 161 156 152 148 141 130 123 117 113 104 92 67 50 22 8 358 359 357 358 348 345 337 348 351 349 349 349 347 339 330 329 328 326 326 325 322 320
166 160 153 150 144 132 120 114 96 99 85 78 79 57 19 1 353 356 355 341 320 342 342 326 349 338 342 343 345 339 329 330 327 325 324 324 322 320
166 163 159 151 148 146 139 126 110 87 84 77 67 56 24 2 354 351 341 336 347 359 351 295 328 328 334 337 339 335 326 326 326 326 326 324 322 320
164 162 158 150 149 143 142 134 124 113 92 75 59 40 30 24 358 350 358 356 346 334 339 326 325 322 322 326 330 329 328 328 326 324 322 322 323 322
154 151 152 146 142 147 150 142 134 127 113 101 89 54 36 32 12 6 355 348 345 318 337 334 320 338 315 311 317 322 329 335 324 327 326 324 324 323
143 143 139 136 138 150 145 142 144 134 117 122 86 58 42 36 29 14 358 350 331 306 335 330 309 315 294 304 311 319 324 320 322 326 332 327 323 322
145 145 139 140 137 130 122 126 126 126 125 111 79 52 40 29 17 2 357 352 341 327 348 344 298 307 298 302 307 313 319 320 323 326 328 324 320 319
153 144 141 139 135 123 127 127 132 123 114 97 66 43 29 16 3 358 359 354 353 3 1 353 334 328 306 296 298 310 316 319 321 324 320 320 315 316
136 140 145 144 137 132 133 130 122 120 105 78 56 38 21 13 10 4 0 359 354 354 1 358 348 335 318 307 304 304 309 310 318 321 320 316 313 311
146 144 144 143 147 139 132 132 130 120 98 70 43 26 16 6 6 4 4 1 349 338 335 343 342 336 328 320 302 308 312 315 320 318 319 316 316 316
148 147 149 157 151 148 143 141 131 127 102 55 32 22 11 4 358 358 2 354 339 332 325 327 336 340 337 340 341 327 326 323 323 322 322 317 316 327
146 150 154 158 157 151 146 147 140 138 90 27 29 16 8 4 358 359 354 345 332 330 327 326 334 337 331 330 322 339 325 326 322 322 323 319 312 321
155 158 159 159 156 152 147 138 132 139 111 75 38 21 1 358 359 355 345 331 326 328 327 331 334 335 326 320 310 319 343 320 326 321 321 320 315 329
159 159 157 158 159 153 145 139 134 117 80 70 48 13 360 357 353 344 335 331 330 332 327 328 327 329 329 330 319 318 339 353 342 324 322 323 320 313
157 156 157 159 157 156 153 144 122 102 112 88 34 9 357 350 343 333 325 330 332 325 323 326 333 336 335 327 317 316 321 343 354 353 343 330 317 316
151 154 156 160 164 166 169 148 101 48 131 73 16 0 349 342 337 332 332 335 331 323 330 332 335 338 332 330 324 318 323 330 333 334 349 357 346 335